{"data":{"norad_id":67599,"intl_designator":"2026-018L","name":"STARLINK-36582","alt_names":[],"object_type":"PAYLOAD","status":"ACTIVE","operator":null,"country":"US","launch_date":"2026-01-29","launch_site_code":"AFWTR","launch_vehicle":null,"mission":null,"orbit_class":"UNKNOWN","rcs_meters":null,"size_class":null,"mass_kg":null,"dimensions":null,"purposes":["comms"],"wikipedia_slug":null,"has_3d_model":false,"image_url":null,"decayed_at":null,"tle_current":{"epoch":"2026-05-25T03:30:24.546816Z","epoch_age_seconds":55799,"freshness":"FRESH","line1":"1 67599U 26018L   26145.14611744  .00016352  00000+0  50746-3 0  9990","line2":"2 67599  97.2849 210.3085 0000468  48.0394 312.0889 15.33462044 19106","mean_motion":15.33462044,"eccentricity":4.68e-5,"inclination_deg":97.2849,"raan_deg":210.3085,"arg_perigee_deg":48.0394,"mean_anomaly_deg":312.0889,"bstar":0.00050746,"rev_number":1910,"period_min":93.90516091574,"perigee_km":465.17218213639,"apogee_km":465.81274585422,"semimajor_km":6843.6294639953,"source":"CELESTRAK","updated_at":"2026-05-25T13:38:21.621203Z"}}}